STARLINK-36781, 67931

Orbit data source: Space-Track

STARLINK-36781, 67931 is a payload satellite owned by SpaceX/Seattle (US) in LEO that was launched on Sun, 22 Feb 2026 UTC via an FALCON 9 launch vehicle from the Air Force Eastern Test Range (AFETR). Payload-class satellites include a variety of spacecraft equipped with specific instruments for various scientific and technological missions. These include communications satellites like Starlink; space stations such as the ISS; scientific satellites like the Hubble; Earth observation satellites from companies like Planet Labs, Umbra, and HawkEye 360; GPS; miniature CubeSats for education and research; and military/defense satellites.

Loading next visibility...
Identifier
67931, 2026-036AD
Orbit
LEO
Country
Flag of USUS
Related business
Manufacturer
SpaceX/Seattle
Mission
Operational Commercial Communications
Bus & Motor
STARLINK V2MO, Unknown motor
Mass
575 kg wet, ~530 kg dry
Launch date (UTC)
2026-02-22 (2 months ago)
Launch vehicle
FALCON 9
Launch site
Air Force Eastern Test Range (AFETR)
Object type
Payload
Rocket body
Debris
Shape & HBR
Box + 2 Pan, 17.7 m
Radar Cross Section
36.964 m²

Expand to show TLE details & history
Last TLE update: 8 hours ago

TLE from 8 hours ago
0 STARLINK-36781
1 67931U 26036AD  26112.09813272  .00023092  00000-0  84527-3 0  9992
2 67931  43.0013 359.8584 0002169 266.3746  93.6858 15.27609487 10361
Epoch: 2026-04-22T02:21Z
TLE epoch observation values (Epoch: 2026-04-22T02:21:18.667Z)
Latitude
0.00003°
Longitude
114.36621°
Altitude
482.832 km
Speed
7.626 km/s
True Right ascension
23h 59m 26s
True Declination
0° 00' 00"
Sunlit
Object was in daylight at epoch
Visualization orbit readout
Latitude
Unknown
Longitude
Unknown
Altitude
Unknown
Speed
Unknown
Apparent Right ascension
Unknown
Apparent Declination
Unknown
Sunlit
N/A
Visualization observer readout
Local Sidereal Time
17:42:54
Azimuth
Unknown
Elevation
Unknown
Doppler factor
Unknown
Orbital elements
Apogee altitude
486.394 km
Perigee altitude
483.417 km
Semi-major axis
6,863.043 km
Eccentricity
0.00022
Inclination
43.0013°
RAAN
359.8584°
Arg. of periapsis
266.3746°
True anomaly
93.7106°
Mean anomaly
93.6858°
Eccentric anomaly
93.6982°
Mean motion
3.8174 °/min
Orbital period
94.3 mins
BSTAR
0.00084527
Loading maneuver chart data...
Computing Atmospheric mass density...
Loading historical data...
Loading historical data...
Loading historical data...
Loading historical data...
Loading historical data...
Loading historical data...
Loading historical data...

Documentation

Showing up to 5 results
|